Theta_e
314 314 314 313 313 313 313 314 314 314 314 314 314 314 314 314 314 315 316 316 316 317 317 318 318 319 315 304 303 320 339 339 324 315 309 305 303 301 297 300 303 301 304 308 309 311 310
313 313 313 313 312 312 312 313 314 314 314 314 314 314 314 314 314 315 315 315 316 317 318 318 318 319 308 297 313 317 318 316 312 308 307 305 302 304 301 301 300 304 306 307 308 307 308
313 313 313 312 312 312 312 312 312 313 313 313 313 313 313 314 314 315 315 315 315 317 317 318 319 317 306 302 312 317 315 311 312 311 306 307 308 304 302 300 304 304 300 305 306 307 304
312 312 312 312 312 311 311 311 311 312 313 313 312 312 312 313 314 314 315 315 315 317 320 319 321 313 302 313 314 312 314 311 311 309 308 310 310 305 301 302 302 298 297 294 302 305 306
312 312 311 311 311 311 311 311 311 312 312 312 312 311 312 312 313 314 314 313 315 320 322 321 313 307 301 318 314 315 313 310 311 311 311 314 305 301 301 295 292 294 291 294 299 305 305
311 311 311 311 311 311 312 312 312 312 312 312 311 311 311 311 313 313 312 313 320 316 317 317 313 303 307 309 312 312 311 312 309 308 306 304 299 295 294 291 288 290 291 294 296 302 303
311 311 311 311 310 311 311 311 311 311 311 311 311 310 310 311 312 311 308 308 305 305 307 305 307 306 311 315 313 307 309 309 308 304 296 299 292 289 293 295 297 296 295 295 300 304 302
310 310 310 310 310 310 311 311 311 311 310 310 310 310 311 311 311 311 307 305 305 304 299 308 308 310 316 315 308 308 309 302 302 296 298 296 292 297 300 299 298 297 294 294 298 302 301
309 310 310 309 309 310 310 310 310 310 309 309 309 309 310 310 310 311 310 306 310 309 299 305 308 308 308 309 305 306 308 304 300 297 297 293 297 303 301 299 297 296 294 294 295 300 300
309 309 309 309 309 309 310 310 310 310 309 309 309 309 309 310 308 307 305 308 309 311 294 301 305 307 309 308 304 311 310 304 300 298 299 298 301 301 300 299 299 293 299 299 298 295 289
308 309 309 309 309 309 309 309 310 310 308 308 308 309 309 309 304 306 304 308 307 307 286 306 305 310 308 304 307 307 311 306 298 299 300 297 299 298 297 299 301 297 301 298 298 294 290
308 308 308 309 309 309 309 309 309 309 308 308 308 308 309 310 306 308 308 308 305 293 288 301 306 303 301 304 305 307 307 307 305 299 299 299 304 302 301 303 302 303 298 296 294 291 285
308 308 308 309 309 309 308 308 309 309 308 307 307 308 307 310 303 308 308 303 292 288 303 298 299 302 300 299 301 303 302 298 295 290 290 297 299 303 304 298 300 297 290 283 283 283 284
307 307 308 308 309 308 308 308 308 308 307 306 305 306 310 312 309 307 305 295 285 297 294 300 299 300 297 299 299 300 298 295 300 297 293 291 289 298 303 299 295 294 292 285 280 281 286
307 307 307 307 308 308 307 307 307 307 307 304 305 309 310 307 308 307 299 288 289 294 296 294 297 296 294 296 296 296 296 296 299 299 294 295 293 302 303 303 301 295 292 294 289 289 286
307 306 307 307 308 308 308 307 307 307 306 304 300 305 304 307 307 305 295 292 294 297 296 295 289 293 288 291 291 292 293 299 297 300 299 297 291 302 305 306 304 299 301 291 289 281 281
306 306 306 307 307 307 307 307 307 307 306 304 303 302 303 308 307 300 292 292 294 298 296 292 289 289 290 288 289 289 293 297 297 297 298 297 294 296 301 298 296 297 295 295 293 292 286
306 306 306 306 307 307 307 307 307 307 305 301 300 295 304 306 295 295 289 292 295 295 296 293 294 291 288 289 288 288 290 293 296 297 291 291 291 288 293 300 302 300 298 296 287 286 289
307 306 306 306 307 306 306 307 307 306 305 298 296 299 306 303 287 288 292 292 294 293 292 291 290 291 291 287 284 288 290 295 295 293 291 291 285 281 285 292 297 296 298 296 295 295 289
306 306 305 306 307 307 306 306 306 306 305 300 297 291 296 297 295 290 289 290 290 294 292 292 290 290 287 285 286 284 286 291 293 292 298 293 286 283 279 284 288 288 292 294 294 287 289
305 306 306 306 306 307 306 306 306 306 305 301 297 292 293 286 289 291 291 290 289 287 291 291 288 288 285 281 283 282 285 287 290 293 290 288 282 285 285 287 288 288 288 290 289 291 290
305 305 306 306 306 305 306 306 306 306 305 302 293 291 293 290 293 291 291 289 288 289 288 287 286 288 287 281 283 281 284 283 283 287 286 287 281 283 280 285 286 284 287 289 289 290 291
305 304 305 305 306 305 305 305 306 306 305 296 298 298 293 291 290 289 288 289 289 290 292 292 289 287 286 288 289 288 287 286 286 283 282 282 281 279 275 282 282 278 284 288 289 291 291
304 304 304 304 305 306 305 305 305 306 305 300 299 296 291 285 288 288 290 291 290 290 287 291 291 288 292 295 292 289 288 288 288 287 286 282 280 280 276 278 271 282 290 290 288 290 292
305 304 304 304 304 305 305 305 305 305 306 300 301 297 293 287 289 289 291 290 290 291 290 291 293 294 294 290 283 281 282 283 285 287 286 286 282 275 274 275 279 283 286 286 285 285 291
304 304 304 303 304 304 304 305 305 305 306 301 300 302 297 288 287 292 288 290 288 286 287 290 295 296 294 288 282 276 274 279 279 282 288 288 287 280 276 272 268 281 288 291 289 279 290
304 304 304 303 303 303 304 304 305 305 305 303 299 302 298 289 293 292 288 287 290 288 286 289 291 290 292 282 278 277 277 284 277 278 279 280 279 277 275 270 279 287 290 293 279 280 293
303 304 303 303 303 303 303 304 304 305 304 303 299 302 298 292 292 295 295 291 291 290 287 290 288 287 285 280 280 280 279 282 281 283 282 279 278 274 275 269 270 291 290 283 287 291 294
303 303 303 303 302 302 303 303 304 305 305 304 297 301 303 295 293 299 298 300 297 296 292 291 288 288 288 285 284 285 280 282 282 276 285 278 282 278 281 278 288 291 290 293 293 293 293
Wind_Speed
21 21 22 22 22 22 23 23 23 23 23 24 26 26 26 24 24 22 21 19 19 16 13 10 8 6 3 4 15 4 6 10 8 6 10 9 9 8 8 7 10 10 13 15 14 24 20
21 21 22 22 23 23 24 24 23 24 24 25 26 26 26 25 24 23 21 19 17 14 11 8 6 3 3 8 14 15 11 7 9 9 9 9 9 10 9 10 10 8 13 16 16 13 16
22 22 22 23 23 24 25 25 25 25 25 26 26 27 27 27 25 23 21 19 17 14 9 6 5 5 6 20 3 7 12 10 10 10 11 11 15 9 6 9 11 10 9 15 13 15 12
23 23 23 24 24 25 26 26 26 26 26 26 26 27 28 28 27 24 22 20 18 13 6 5 6 4 9 10 11 18 15 11 12 12 14 16 14 12 7 6 7 7 6 8 11 7 8
22 23 24 24 25 26 26 27 27 26 26 27 27 28 29 28 28 25 23 23 19 9 4 9 4 3 11 9 5 10 11 11 12 15 13 14 2 2 4 4 6 6 9 9 9 9 6
23 23 24 25 24 24 25 26 26 27 27 28 28 29 30 29 27 26 25 17 2 3 4 8 8 4 8 8 8 11 7 7 8 7 6 4 2 3 5 2 13 9 6 8 9 7 9
23 23 25 26 27 26 26 27 28 28 28 29 30 30 31 30 28 21 14 5 4 1 5 8 7 7 17 9 5 5 8 7 8 5 8 8 4 8 11 12 12 8 12 11 11 15 13
22 23 24 26 28 27 27 28 28 29 29 30 31 32 32 31 28 25 4 4 8 7 14 14 22 26 23 21 20 9 7 8 8 9 6 7 12 11 14 16 17 16 14 15 11 9 14
22 23 24 26 27 26 28 29 30 29 30 30 31 33 33 32 31 9 4 9 9 9 6 14 19 17 21 20 22 8 11 8 10 11 12 11 12 16 19 17 17 15 16 11 14 17 8
21 23 24 24 25 27 27 29 31 32 31 31 32 32 32 32 5 8 5 12 12 5 4 9 6 9 8 3 5 9 9 11 9 15 13 14 13 18 18 20 15 13 10 13 16 6 7
22 23 23 23 25 26 28 29 31 31 33 32 33 32 30 12 8 6 9 11 10 5 5 5 6 2 4 8 5 9 12 8 14 14 11 18 15 17 17 15 10 9 8 7 6 6 4
22 23 23 23 25 26 27 29 32 33 33 35 36 33 25 1 3 7 11 12 4 1 7 4 6 6 6 9 11 6 7 7 7 9 12 16 17 17 16 16 12 7 5 8 6 3 6
22 23 23 23 25 27 28 29 31 33 34 36 38 36 17 6 5 10 9 6 1 4 14 13 13 15 10 9 14 11 6 9 8 4 6 12 18 19 16 13 11 4 3 3 5 3 10
21 22 23 23 25 26 28 29 31 34 36 38 39 34 6 6 7 8 5 3 3 10 16 16 17 16 7 11 13 21 13 10 9 11 11 10 12 16 20 15 9 7 9 8 8 4 9
21 22 24 25 25 28 30 30 32 34 36 40 33 6 4 3 8 4 4 2 5 10 14 16 15 7 9 22 13 13 17 18 13 24 12 6 21 16 17 17 13 9 11 9 5 5 3
21 22 23 23 23 25 28 31 33 35 37 38 9 5 4 9 8 2 1 4 6 13 11 13 11 10 14 15 14 15 10 14 14 17 14 12 8 8 14 10 14 7 10 3 1 8 10
18 21 22 21 23 25 26 28 31 35 37 33 2 5 7 13 4 2 1 5 8 13 15 10 11 9 13 14 16 13 7 10 26 20 15 9 5 7 8 4 3 3 13 6 6 5 7
18 20 21 22 21 23 25 27 28 27 34 14 8 5 10 13 6 5 7 11 10 14 12 9 9 11 11 14 5 8 9 14 24 22 15 16 5 5 10 21 15 12 4 8 4 8 5
17 17 20 21 20 22 24 26 29 27 22 9 8 5 7 9 6 6 9 13 12 12 13 12 10 9 10 8 7 13 14 17 21 17 12 13 7 7 11 7 8 4 4 7 4 8 10
16 16 17 19 19 20 22 25 28 30 27 7 4 5 6 4 5 5 6 7 7 12 8 10 8 7 7 7 9 10 15 13 19 17 16 10 5 6 7 15 15 16 18 9 4 4 4
16 17 17 17 19 18 20 22 25 29 31 4 4 4 3 6 7 10 7 8 7 7 8 7 6 9 8 6 9 9 14 13 14 10 5 4 5 11 17 20 20 20 21 13 10 5 6
16 16 18 17 17 19 18 20 23 25 33 1 4 5 5 12 9 11 8 5 8 8 7 7 4 9 6 6 7 8 10 8 6 8 10 4 7 12 19 19 18 23 20 15 12 12 14
16 16 17 17 17 16 17 17 18 19 18 4 6 5 5 6 10 10 7 9 10 8 6 11 10 7 10 11 5 6 6 7 9 9 10 10 9 11 18 16 18 14 14 12 12 8 11
15 17 17 17 16 15 16 15 15 15 11 5 7 6 4 6 9 11 17 17 11 14 12 11 10 10 7 12 6 7 9 11 10 14 9 14 12 8 14 9 16 12 10 17 17 14 14
16 16 16 16 16 16 15 15 13 14 11 5 7 5 1 6 8 15 12 15 15 12 10 10 10 4 3 6 5 7 10 12 11 16 13 11 11 5 9 13 15 19 14 13 11 18 9
17 16 17 16 15 15 15 15 13 13 12 4 7 6 5 3 6 10 16 15 10 7 10 9 15 9 8 4 2 4 4 5 5 7 10 8 9 6 5 6 8 5 15 20 17 21 15
16 17 17 17 16 16 15 15 15 13 13 6 5 8 3 5 11 15 8 9 9 11 9 12 8 6 5 2 3 7 9 9 6 8 9 6 5 9 7 4 7 14 15 9 8 8 4
17 16 17 17 16 17 17 16 16 14 13 6 5 8 5 5 12 18 21 16 10 8 9 9 10 3 2 3 3 4 3 5 5 6 5 3 6 3 4 3 11 6 9 6 4 5 4
16 16 16 17 17 16 16 17 17 16 14 9 4 6 5 4 9 17 20 23 21 23 15 11 10 11 4 2 3 2 3 2 5 16 8 9 11 5 5 7 14 18 12 6 8 8 7
Wind_Direction
19 17 14 12 9 6 1 357 353 350 346 341 341 338 334 331 328 324 321 319 312 307 296 290 287 283 253 221 247 209 100 126 149 199 210 219 233 249 242 243 245 234 245 250 250 277 271
18 15 12 9 7 5 0 357 352 348 345 341 337 334 332 330 327 323 321 318 310 302 288 274 265 248 236 253 251 206 168 156 190 195 215 218 226 233 262 240 244 249 247 255 251 224 263
15 14 12 9 5 3 0 356 352 347 344 341 337 334 331 327 327 324 320 315 311 303 283 250 212 232 259 239 234 159 174 179 216 204 217 224 236 241 243 259 260 259 275 257 252 241 248
14 11 9 6 4 2 358 354 352 347 345 340 337 333 331 328 326 323 319 313 303 300 268 199 187 235 254 261 236 249 230 200 203 224 214 228 231 229 231 280 314 289 292 257 257 254 235
13 10 7 5 2 358 356 351 348 347 344 341 338 332 330 328 326 324 318 308 290 279 182 154 169 214 267 269 204 237 228 210 209 223 228 241 323 263 292 287 314 268 243 266 272 257 241
11 9 5 3 360 356 352 350 347 345 343 339 336 334 329 327 326 325 321 293 98 135 191 187 262 251 255 243 239 225 241 219 225 206 256 237 75 296 311 206 228 244 260 247 251 261 259
8 7 4 1 358 354 351 349 347 344 342 338 336 334 327 328 323 325 340 346 358 355 248 220 201 229 294 241 101 180 228 223 233 230 201 237 170 220 237 246 247 248 235 254 225 231 223
6 5 3 360 357 352 350 348 346 344 342 339 335 333 330 327 322 318 257 315 341 249 292 241 246 252 252 267 282 197 198 210 208 239 237 234 231 223 233 243 239 246 254 265 284 268 216
5 3 1 358 354 351 349 347 345 344 341 339 335 333 331 326 318 312 213 1 318 349 285 285 239 235 235 230 249 223 185 228 217 220 238 229 233 232 233 247 249 239 230 248 248 274 267
4 2 0 356 352 349 348 345 343 341 341 339 334 333 331 330 346 331 354 337 327 15 304 274 198 206 226 124 287 228 226 188 231 234 229 246 252 253 250 239 233 253 257 245 239 247 243
2 0 359 354 351 349 345 344 341 340 339 338 334 331 331 331 301 317 328 321 313 46 319 181 118 80 153 161 251 202 209 221 217 231 224 253 253 254 261 262 245 240 275 270 267 247 297
358 358 357 354 350 348 346 343 340 340 340 337 333 327 335 15 208 267 324 311 348 303 248 221 139 192 203 209 234 258 152 202 252 224 254 266 277 266 271 279 253 242 250 294 292 209 250
356 355 354 353 350 349 346 344 341 340 341 336 331 321 322 282 255 325 326 324 14 228 338 358 356 348 351 340 330 319 210 193 199 244 268 270 264 275 275 287 291 182 149 310 319 291 223
355 353 352 352 349 349 346 345 342 342 341 337 329 315 253 238 302 336 333 351 253 306 26 346 343 321 315 319 333 337 310 295 216 207 227 246 270 241 260 253 230 237 173 176 215 216 256
355 353 352 353 350 348 346 346 344 343 343 337 325 317 269 293 343 344 20 304 15 16 355 346 329 337 6 348 357 351 346 357 42 44 360 307 265 262 254 252 242 244 246 209 179 267 300
353 352 351 350 349 349 347 346 344 345 343 337 320 297 326 331 322 360 3 250 65 360 10 3 15 6 344 345 346 356 324 20 5 17 2 338 303 300 301 308 269 186 234 231 280 197 245
351 349 348 349 350 348 348 348 346 346 344 334 300 315 344 343 347 55 294 43 18 12 34 19 358 333 3 3 344 343 341 357 19 356 347 16 341 323 327 248 302 266 271 210 146 175 191
348 346 346 348 349 347 347 347 345 353 346 3 329 336 349 348 41 359 27 3 321 31 40 12 25 10 13 333 316 324 322 2 22 8 5 8 280 272 266 294 303 304 284 350 208 256 205
343 346 345 346 346 347 347 347 343 347 5 321 320 280 8 1 43 5 354 341 1 23 20 22 8 13 352 345 335 355 348 336 7 9 19 354 331 329 331 334 327 301 49 29 124 15 296
338 341 343 344 343 345 347 346 344 340 347 348 303 329 355 344 21 14 341 324 321 34 23 14 358 343 352 352 344 322 332 352 349 344 13 6 313 327 303 316 322 312 318 345 123 137 292
336 336 337 342 344 344 347 346 346 341 339 338 350 10 28 322 330 314 298 296 349 1 14 4 349 344 360 339 319 319 329 332 329 324 10 79 287 317 324 323 318 305 305 315 301 250 165
330 330 333 336 340 344 345 347 349 347 337 60 19 352 342 296 307 293 295 31 2 346 342 306 304 333 323 295 280 311 326 324 311 315 309 282 258 301 300 310 308 306 304 282 283 293 297
322 326 327 332 335 341 340 347 349 354 352 338 353 335 299 296 304 314 2 352 325 301 289 343 340 318 294 285 324 318 290 280 271 259 264 270 267 274 275 291 306 302 281 301 296 290 303
312 319 323 326 329 334 335 340 343 348 5 333 306 314 323 288 321 309 328 307 343 336 310 298 281 267 346 344 340 311 280 277 276 274 249 263 256 260 267 274 267 258 267 282 286 283 284
309 312 316 320 323 326 328 332 335 332 342 326 304 295 350 279 302 296 333 336 315 287 292 318 329 73 348 339 316 304 300 284 262 266 257 234 250 249 248 255 272 272 268 281 290 285 304
308 308 311 312 315 316 321 321 324 324 330 315 305 311 304 306 252 277 318 295 296 331 314 311 333 330 1 319 312 258 243 293 276 300 314 299 218 245 258 253 254 252 249 249 265 273 280
305 305 306 307 308 311 313 314 315 315 316 311 284 292 264 263 269 262 271 296 314 299 277 292 302 339 325 226 245 259 257 255 259 262 296 296 303 217 233 238 261 252 269 302 259 254 345
300 301 301 302 304 305 307 308 306 304 309 311 278 289 280 275 283 277 275 281 276 269 277 296 333 270 271 229 223 234 240 233 260 263 304 316 311 263 262 220 264 231 238 204 188 304 358
299 300 299 298 299 300 301 301 300 303 302 309 270 272 291 248 267 287 274 271 263 261 266 265 239 269 270 279 268 304 281 308 276 278 267 246 212 230 261 243 309 306 295 217 177 218 198